,,,PA_Meas_PMT16A,,PR_Meas_QMR101_102,,RH_Meas_QMH101,,SR_Meas_QMS101,,TA_Meas_QMH101,,GenWind,,GenWind,
date,time,status,PA,status,PR,status,RH,status,SR,status,TA,status,DirAvg,status,SpdAvg,
2010-09-22, 00:00:04,VALID,1002.16,VALID,0,VALID,82.4301,VALID,1.10619,VALID,27.5987,VALID,44,VALID,1.33945,
2010-09-22, 00:01:04,VALID,1002.18,VALID,0,VALID,82.5292,VALID,0.905066,VALID,27.5987,VALID,48,VALID,0.787109,
2010-09-22, 00:02:04,VALID,1002.24,VALID,0,VALID,82.3919,VALID,0.703941,VALID,27.6182,VALID,360,VALID,0.798828,
2010-09-22, 00:03:04,VALID,1002.19,VALID,0,VALID,82.4529,VALID,0.502815,VALID,27.6203,VALID,4,VALID,1.10273,
2010-09-22, 00:04:04,VALID,1002.16,VALID,0,VALID,82.4682,VALID,0.502815,VALID,27.5987,VALID,21,VALID,0.555469,
2010-09-22, 00:05:04,VALID,1002.19,VALID,0,VALID,82.369,VALID,0.402252,VALID,27.5792,VALID,49,VALID,1.50547,
2010-09-22, 00:06:04,VALID,1002.22,VALID,0,VALID,82.6131,VALID,0.301689,VALID,27.5577,VALID,19,VALID,1.32773,
2010-09-22, 00:07:04,VALID,1002.19,VALID,0,VALID,82.6971,VALID,0.201126,VALID,27.6008,VALID,15,VALID,0.873828,
2010-09-22, 00:08:04,VALID,1002.2,VALID,0,VALID,82.8725,VALID,0.100563,VALID,27.5598,VALID,22,VALID,0.917578,
2010-09-22, 00:09:04,VALID,1002.22,VALID,0,VALID,82.8344,VALID,0.100563,VALID,27.5208,VALID,53,VALID,1.13984,
2010-09-22, 00:10:04,VALID,1002.21,VALID,0,VALID,82.9336,VALID,0,VALID,27.5403,VALID,69,VALID,0.505469,
2010-09-22, 00:11:04,VALID,1002.21,VALID,0,VALID,82.8496,VALID,0,VALID,27.5208,VALID,29,VALID,0.864844,
2010-09-22, 00:12:04,VALID,1002.2,VALID,0,VALID,83.0175,VALID,0,VALID,27.5208,VALID,38,VALID,0.54375,
2010-09-22, 00:13:04,VALID,1002.24,VALID,0,VALID,83.1624,VALID,0,VALID,27.4797,VALID,55,VALID,0.738672,
2010-09-22, 00:14:04,VALID,1002.26,VALID,0,VALID,83.1243,VALID,0,VALID,27.4818,VALID,102,VALID,0.556641,
2010-09-22, 00:15:04,VALID,1002.27,VALID,0,VALID,83.0404,VALID,0,VALID,27.4818,VALID,77,VALID,1.79023,
2010-09-22, 00:16:04,VALID,1002.28,VALID,0,VALID,83.0404,VALID,0,VALID,27.5013,VALID,65,VALID,0.54375,
2010-09-22, 00:17:04,VALID,1002.27,VALID,0,VALID,83.1624,VALID,0,VALID,27.5013,VALID,39,VALID,1.26602,
2010-09-22, 00:18:04,VALID,1002.27,VALID,0,VALID,83.2387,VALID,0,VALID,27.4818,VALID,107,VALID,0.742188,
2010-09-22, 00:19:04,VALID,1002.26,VALID,0,VALID,83.376,VALID,0,VALID,27.4428,VALID,27,VALID,0.94375,
2010-09-22, 00:20:04,VALID,1002.25,VALID,0,VALID,83.5973,VALID,0,VALID,27.4233,VALID,88,VALID,1.17813,
2010-09-22, 00:21:04,VALID,1002.22,VALID,0,VALID,83.6583,VALID,0,VALID,27.4039,VALID,62,VALID,0.670313,
2010-09-22, 00:22:04,VALID,1002.2,VALID,0,VALID,83.7422,VALID,0,VALID,27.3844,VALID,81,VALID,0.848047,
2010-09-22, 00:23:04,VALID,1002.19,VALID,0,VALID,83.7346,VALID,0,VALID,27.3433,VALID,75,VALID,0.807813,
2010-09-22, 00:24:04,VALID,1002.18,VALID,0,VALID,83.7651,VALID,0,VALID,27.3454,VALID,32,VALID,0.685938,
2010-09-22, 00:25:04,VALID,1002.22,VALID,0,VALID,83.8872,VALID,0,VALID,27.3238,VALID,36,VALID,0.73125,
2010-09-22, 00:26:04,VALID,1002.2,VALID,0,VALID,83.7041,VALID,0,VALID,27.3649,VALID,65,VALID,1.44727,
2010-09-22, 00:27:04,VALID,1002.19,VALID,0,VALID,83.582,VALID,0,VALID,27.3844,VALID,89,VALID,0.934766,
2010-09-22, 00:28:04,VALID,1002.18,VALID,0,VALID,83.6125,VALID,0,VALID,27.3823,VALID,36,VALID,0.6625,
2010-09-22, 00:29:04,VALID,1002.19,VALID,0,VALID,83.5896,VALID,0,VALID,27.3628,VALID,50,VALID,0.992578,
2010-09-22, 00:30:04,VALID,1002.2,VALID,0,VALID,83.5439,VALID,0.100563,VALID,27.3628,VALID,62,VALID,1.30898,
2010-09-22, 00:31:04,VALID,1002.2,VALID,0,VALID,83.5591,VALID,0,VALID,27.3628,VALID,28,VALID,1.23477,
2010-09-22, 00:32:04,VALID,1002.23,VALID,0,VALID,83.7498,VALID,0,VALID,27.3628,VALID,44,VALID,0.875391,
2010-09-22, 00:33:04,VALID,1002.22,VALID,0,VALID,83.7956,VALID,0,VALID,27.3433,VALID,42,VALID,1.28594,
2010-09-22, 00:34:04,VALID,1002.22,VALID,0,VALID,83.7346,VALID,0,VALID,27.3238,VALID,50,VALID,0.950781,
2010-09-22, 00:35:04,VALID,1002.2,VALID,0,VALID,83.7422,VALID,0,VALID,27.3238,VALID,343,VALID,0.546094,
2010-09-22, 00:36:04,VALID,1002.22,VALID,0,VALID,83.4676,VALID,0.100563,VALID,27.3433,VALID,52,VALID,1.66602,
2010-09-22, 00:37:04,VALID,1002.21,VALID,0,VALID,83.5057,VALID,0,VALID,27.3433,VALID,71,VALID,0.742188,
2010-09-22, 00:38:04,VALID,1002.26,VALID,0,VALID,83.6812,VALID,0,VALID,27.3238,VALID,13,VALID,0.904297,
2010-09-22, 00:39:04,VALID,1002.2,VALID,0,VALID,83.6125,VALID,0,VALID,27.3454,VALID,48,VALID,1.22539,
2010-09-22, 00:40:04,VALID,1002.19,VALID,0,VALID,83.4676,VALID,0,VALID,27.3044,VALID,92,VALID,1.47578,
2010-09-22, 00:41:04,VALID,1002.19,VALID,0,VALID,83.4676,VALID,0.100563,VALID,27.3238,VALID,17,VALID,1.28281,
2010-09-22, 00:42:04,VALID,1002.21,VALID,0,VALID,83.2845,VALID,0.100563,VALID,27.3454,VALID,39,VALID,1.40898,
2010-09-22, 00:43:04,VALID,1002.2,VALID,0,VALID,83.0632,VALID,0,VALID,27.3433,VALID,7,VALID,1.92383,
2010-09-22, 00:44:04,VALID,1002.25,VALID,0,VALID,83.0251,VALID,0,VALID,27.3649,VALID,64,VALID,1.48398,
2010-09-22, 00:45:04,VALID,1002.25,VALID,0,VALID,83.0861,VALID,0,VALID,27.3433,VALID,57,VALID,1.45742,
2010-09-22, 00:46:04,VALID,1002.23,VALID,0,VALID,83.0861,VALID,0,VALID,27.3433,VALID,83,VALID,1.19922,
2010-09-22, 00:47:04,VALID,1002.29,VALID,0,VALID,83.2769,VALID,0,VALID,27.3649,VALID,22,VALID,1.1707,
2010-09-22, 00:48:04,VALID,1002.3,VALID,0,VALID,83.2082,VALID,0,VALID,27.3454,VALID,13,VALID,0.694922,
2010-09-22, 00:49:04,VALID,1002.3,VALID,0,VALID,83.1701,VALID,0,VALID,27.3433,VALID,54,VALID,1.47773,
2010-09-22, 00:50:04,VALID,1002.33,VALID,0,VALID,83.4371,VALID,0,VALID,27.3844,VALID,96,VALID,1.00391,
2010-09-22, 00:51:04,VALID,1002.34,VALID,0,VALID,83.3684,VALID,0,VALID,27.3649,VALID,39,VALID,1.22656,
2010-09-22, 00:52:04,VALID,1002.36,VALID,0,VALID,83.3303,VALID,0,VALID,27.3238,VALID,10,VALID,1.83594,
2010-09-22, 00:53:04,VALID,1002.38,VALID,0,VALID,83.3684,VALID,0,VALID,27.3238,VALID,62,VALID,0.90625,
2010-09-22, 00:54:04,VALID,1002.41,VALID,0,VALID,83.6583,VALID,0,VALID,27.3259,VALID,63,VALID,0.596094,
2010-09-22, 00:55:04,VALID,1002.45,VALID,0,VALID,83.6049,VALID,0.100563,VALID,27.2849,VALID,39,VALID,1.30352,
2010-09-22, 00:56:04,VALID,1002.44,VALID,0,VALID,83.7346,VALID,0,VALID,27.2849,VALID,63,VALID,0.877734,
2010-09-22, 00:57:04,VALID,1002.46,VALID,0,VALID,83.8261,VALID,0,VALID,27.2869,VALID,73,VALID,0.570703,
2010-09-22, 00:58:04,VALID,1002.47,VALID,0,VALID,83.9177,VALID,0,VALID,27.2654,VALID,39,VALID,0.538281,
2010-09-22, 00:59:04,VALID,1002.48,VALID,0,VALID,84.055,VALID,0,VALID,27.2264,VALID,33,VALID,1.47148,
2010-09-22, 01:00:04,VALID,1002.49,VALID,0,VALID,84.261,VALID,0,VALID,27.1854,VALID,106,VALID,0.370313,
2010-09-22, 01:01:04,VALID,1002.54,VALID,0,VALID,84.4212,VALID,0.100563,VALID,27.1875,VALID,60,VALID,0.561328,
2010-09-22, 01:02:04,VALID,1002.56,VALID,0,VALID,84.467,VALID,0,VALID,27.1895,VALID,87,VALID,0.965625,
2010-09-22, 01:03:04,VALID,1002.54,VALID,0,VALID,84.7035,VALID,0.100563,VALID,27.1485,VALID,64,VALID,0.947266,
2010-09-22, 01:04:04,VALID,1002.57,VALID,0,VALID,84.734,VALID,0,VALID,27.1485,VALID,35,VALID,0.7125,
2010-09-22, 01:05:04,VALID,1002.59,VALID,0,VALID,84.6119,VALID,0,VALID,27.1485,VALID,69,VALID,1.08125,
2010-09-22, 01:06:04,VALID,1002.66,VALID,0,VALID,84.7492,VALID,0.100563,VALID,27.1875,VALID,82,VALID,0.891797,
2010-09-22, 01:07:04,VALID,1002.69,VALID,0,VALID,84.4517,VALID,0,VALID,27.1875,VALID,95,VALID,0.704297,
2010-09-22, 01:08:04,VALID,1002.67,VALID,0,VALID,84.4059,VALID,0,VALID,27.1875,VALID,25,VALID,1.41523,
2010-09-22, 01:09:04,VALID,1002.69,VALID,0,VALID,84.5433,VALID,0,VALID,27.1895,VALID,45,VALID,1.11641,
2010-09-22, 01:10:04,VALID,1002.67,VALID,0,VALID,84.467,VALID,0,VALID,27.168,VALID,342,VALID,0.912109,
2010-09-22, 01:11:04,VALID,1002.7,VALID,0,VALID,84.4593,VALID,0.100563,VALID,27.168,VALID,86,VALID,1.13633,
2010-09-22, 01:12:04,VALID,1002.74,VALID,0,VALID,84.5585,VALID,0.100563,VALID,27.168,VALID,37,VALID,1.50195,
2010-09-22, 01:13:04,VALID,1002.79,VALID,0,VALID,84.5127,VALID,0.100563,VALID,27.1875,VALID,346,VALID,0.356641,
2010-09-22, 01:14:04,VALID,1002.82,VALID,0,VALID,84.3907,VALID,0,VALID,27.168,VALID,21,VALID,0.951172,
2010-09-22, 01:15:04,VALID,1002.82,VALID,0,VALID,84.467,VALID,0.100563,VALID,27.168,VALID,84,VALID,0.830859,
2010-09-22, 01:16:04,VALID,1002.85,VALID,0,VALID,84.5738,VALID,0.100563,VALID,27.17,VALID,19,VALID,1.28164,
2010-09-22, 01:17:04,VALID,1002.88,VALID,0,VALID,84.7645,VALID,0.100563,VALID,27.129,VALID,52,VALID,1.58125,
2010-09-22, 01:18:04,VALID,1002.92,VALID,0,VALID,84.6958,VALID,0,VALID,27.129,VALID,44,VALID,0.733203,
2010-09-22, 01:19:04,VALID,1002.97,VALID,0,VALID,84.7035,VALID,0,VALID,27.1485,VALID,84,VALID,1.22227,
2010-09-22, 01:20:04,VALID,1002.98,VALID,0,VALID,84.7721,VALID,0,VALID,27.1095,VALID,38,VALID,0.74375,
2010-09-22, 01:21:04,VALID,1002.96,VALID,0,VALID,84.7035,VALID,0.100563,VALID,27.0921,VALID,23,VALID,0.908203,
2010-09-22, 01:22:04,VALID,1002.94,VALID,0,VALID,84.8103,VALID,0,VALID,27.0921,VALID,79,VALID,1.45078,
2010-09-22, 01:23:04,VALID,1002.98,VALID,0,VALID,84.9934,VALID,0,VALID,27.0706,VALID,39,VALID,1.1875,
2010-09-22, 01:24:04,VALID,1003.01,VALID,0,VALID,85.0773,VALID,0,VALID,27.0531,VALID,103,VALID,1.65664,
2010-09-22, 01:25:04,VALID,1003.02,VALID,0,VALID,85.0391,VALID,0,VALID,27.0316,VALID,17,VALID,1.49453,
2010-09-22, 01:26:04,VALID,1003.03,VALID,0,VALID,85.2451,VALID,0,VALID,27.0316,VALID,71,VALID,1.27305,
2010-09-22, 01:27:04,VALID,1003.08,VALID,0,VALID,85.207,VALID,0,VALID,27.0336,VALID,51,VALID,1.74609,
2010-09-22, 01:28:04,VALID,1003.1,VALID,0,VALID,85.1841,VALID,0,VALID,27.0121,VALID,73,VALID,2.0125,
2010-09-22, 01:29:04,VALID,1003.16,VALID,0,VALID,85.1765,VALID,0,VALID,27.0121,VALID,86,VALID,2.04961,
2010-09-22, 01:30:04,VALID,1003.11,VALID,0,VALID,85.0239,VALID,0,VALID,27.0726,VALID,88,VALID,1.95195,
2010-09-22, 01:31:04,VALID,1003.14,VALID,0,VALID,85.1688,VALID,0,VALID,27.0726,VALID,32,VALID,0.812891,
2010-09-22, 01:32:04,VALID,1003.14,VALID,0,VALID,85.0849,VALID,0,VALID,27.0511,VALID,43,VALID,0.758594,
2010-09-22, 01:33:04,VALID,1003.11,VALID,0,VALID,85.2146,VALID,0,VALID,27.0531,VALID,53,VALID,1.51641,
2010-09-22, 01:34:04,VALID,1003.14,VALID,0,VALID,85.3367,VALID,0,VALID,27.0121,VALID,59,VALID,0.709375,
2010-09-22, 01:35:04,VALID,1003.18,VALID,0,VALID,85.3977,VALID,0.100563,VALID,26.9926,VALID,81,VALID,0.564844,
2010-09-22, 01:36:04,VALID,1003.2,VALID,0,VALID,85.4282,VALID,0,VALID,26.9732,VALID,83,VALID,1.49805,
2010-09-22, 01:37:04,VALID,1003.22,VALID,0,VALID,85.3748,VALID,0,VALID,26.9947,VALID,77,VALID,1.35938,
2010-09-22, 01:38:04,VALID,1003.24,VALID,0,VALID,85.4206,VALID,0,VALID,26.9926,VALID,36,VALID,0.857813,
2010-09-22, 01:39:04,VALID,1003.24,VALID,0,VALID,85.4587,VALID,0,VALID,26.9947,VALID,79,VALID,0.503125,
2010-09-22, 01:40:04,VALID,1003.26,VALID,0,VALID,85.5579,VALID,0,VALID,26.9752,VALID,57,VALID,0.953516,
2010-09-22, 01:41:04,VALID,1003.27,VALID,0,VALID,85.3824,VALID,0,VALID,26.9732,VALID,85,VALID,1.88672,
2010-09-22, 01:42:04,VALID,1003.28,VALID,0,VALID,85.2299,VALID,0,VALID,26.9926,VALID,80,VALID,2.23633,
2010-09-22, 01:43:04,VALID,1003.28,VALID,0,VALID,85.1002,VALID,0,VALID,27.0121,VALID,79,VALID,1.71875,
2010-09-22, 01:44:04,VALID,1003.32,VALID,0,VALID,85.0239,VALID,0,VALID,27.0316,VALID,82,VALID,1.70781,
2010-09-22, 01:45:04,VALID,1003.33,VALID,0,VALID,85.0773,VALID,0,VALID,27.0121,VALID,93,VALID,1.80742,
2010-09-22, 01:46:04,VALID,1003.36,VALID,0,VALID,85.1612,VALID,0,VALID,27.0121,VALID,102,VALID,1.4125,
2010-09-22, 01:47:04,VALID,1003.38,VALID,0,VALID,85.2527,VALID,0.100563,VALID,26.9926,VALID,120,VALID,1.15156,
2010-09-22, 01:48:04,VALID,1003.39,VALID,0,VALID,85.2909,VALID,0,VALID,26.9732,VALID,74,VALID,0.922266,
2010-09-22, 01:49:04,VALID,1003.47,VALID,0,VALID,85.3519,VALID,0,VALID,26.9537,VALID,86,VALID,0.9625,
2010-09-22, 01:50:04,VALID,1003.5,VALID,0,VALID,85.329,VALID,0.100563,VALID,26.9732,VALID,87,VALID,0.73125,
2010-09-22, 01:51:04,VALID,1003.51,VALID,0,VALID,85.3519,VALID,0.100563,VALID,26.9732,VALID,105,VALID,1.10117,
2010-09-22, 01:52:04,VALID,1003.55,VALID,0,VALID,85.2299,VALID,0,VALID,26.9732,VALID,102,VALID,1.98359,
2010-09-22, 01:53:04,VALID,1003.48,VALID,0,VALID,85.1688,VALID,0,VALID,26.9947,VALID,16,VALID,1.51992,
2010-09-22, 01:54:04,VALID,1003.51,VALID,0,VALID,85.3519,VALID,0.100563,VALID,26.9732,VALID,57,VALID,0.777734,
2010-09-22, 01:55:04,VALID,1003.52,VALID,0,VALID,85.2146,VALID,0,VALID,26.9732,VALID,74,VALID,1.25039,
2010-09-22, 01:56:04,VALID,1003.58,VALID,0,VALID,85.2756,VALID,0.100563,VALID,26.9537,VALID,96,VALID,1.23906,
2010-09-22, 01:57:04,VALID,1003.58,VALID,0,VALID,85.3214,VALID,0.100563,VALID,26.9516,VALID,79,VALID,0.601953,
2010-09-22, 01:58:04,VALID,1003.62,VALID,0,VALID,85.3367,VALID,0,VALID,26.9732,VALID,25,VALID,0.664453,
2010-09-22, 01:59:04,VALID,1003.63,VALID,0,VALID,85.4358,VALID,0,VALID,26.9342,VALID,54,VALID,0.996875,
2010-09-22, 02:00:04,VALID,1003.64,VALID,0,VALID,85.5045,VALID,0,VALID,26.9167,VALID,29,VALID,1.42813,
2010-09-22, 02:01:04,VALID,1003.61,VALID,0,VALID,85.4511,VALID,0,VALID,26.9167,VALID,2,VALID,1.35117,
2010-09-22, 02:02:04,VALID,1003.61,VALID,0,VALID,85.5732,VALID,0,VALID,26.8973,VALID,112,VALID,0.787109,
2010-09-22, 02:03:04,VALID,1003.59,VALID,0,VALID,85.6494,VALID,0,VALID,26.9167,VALID,16,VALID,0.588281,
2010-09-22, 02:04:04,VALID,1003.62,VALID,0,VALID,85.6266,VALID,0,VALID,26.9188,VALID,48,VALID,1.09063,
2010-09-22, 02:05:04,VALID,1003.61,VALID,0,VALID,85.6266,VALID,0,VALID,26.9167,VALID,37,VALID,0.313281,
2010-09-22, 02:06:04,VALID,1003.63,VALID,0,VALID,85.6418,VALID,0,VALID,26.8952,VALID,40,VALID,1.2082,
2010-09-22, 02:07:04,VALID,1003.68,VALID,0,VALID,85.6189,VALID,0,VALID,26.8973,VALID,6,VALID,0.777344,
2010-09-22, 02:08:04,VALID,1003.75,VALID,0,VALID,85.6876,VALID,0,VALID,26.9383,VALID,89,VALID,1.4332,
2010-09-22, 02:09:04,VALID,1003.77,VALID,0,VALID,85.7562,VALID,0,VALID,26.8973,VALID,65,VALID,0.554297,
2010-09-22, 02:10:04,VALID,1003.77,VALID,0,VALID,85.7944,VALID,0,VALID,26.9167,VALID,91,VALID,1.11563,
2010-09-22, 02:11:04,VALID,1003.75,VALID,0,VALID,85.7486,VALID,0,VALID,26.9167,VALID,88,VALID,1.11641,
2010-09-22, 02:12:04,VALID,1003.77,VALID,0,VALID,85.7028,VALID,0,VALID,26.9167,VALID,150,VALID,0.294922,
2010-09-22, 02:13:04,VALID,1003.8,VALID,0,VALID,85.802,VALID,0,VALID,26.9167,VALID,41,VALID,0.691016,
2010-09-22, 02:14:04,VALID,1003.81,VALID,0,VALID,85.7028,VALID,0,VALID,26.9167,VALID,71,VALID,1.55117,
2010-09-22, 02:15:04,VALID,1003.8,VALID,0,VALID,85.5808,VALID,0,VALID,26.9772,VALID,84,VALID,1.04805,
2010-09-22, 02:16:04,VALID,1003.84,VALID,0,VALID,85.4816,VALID,0,VALID,26.9947,VALID,57,VALID,1.30117,
2010-09-22, 02:17:04,VALID,1003.81,VALID,0,VALID,85.5732,VALID,0,VALID,26.9557,VALID,66,VALID,0.475,
2010-09-22, 02:18:04,VALID,1003.8,VALID,0,VALID,85.6647,VALID,0,VALID,26.9362,VALID,36,VALID,0.722656,
2010-09-22, 02:19:04,VALID,1003.83,VALID,0,VALID,85.6494,VALID,0,VALID,26.9167,VALID,79,VALID,1.05,
2010-09-22, 02:20:04,VALID,1003.82,VALID,0,VALID,85.7181,VALID,0,VALID,26.9167,VALID,53,VALID,0.517187,
2010-09-22, 02:21:04,VALID,1003.85,VALID,0,VALID,85.8859,VALID,0,VALID,26.9188,VALID,53,VALID,0.478125,
2010-09-22, 02:22:04,VALID,1003.87,VALID,0,VALID,86.0233,VALID,0,VALID,26.8778,VALID,85,VALID,1.20469,
2010-09-22, 02:23:04,VALID,1003.82,VALID,0,VALID,85.9927,VALID,0,VALID,26.8973,VALID,34,VALID,0.705859,
2010-09-22, 02:24:04,VALID,1003.83,VALID,0,VALID,86.0004,VALID,0,VALID,26.8778,VALID,12,VALID,0.791406,
2010-09-22, 02:25:04,VALID,1003.81,VALID,0,VALID,86.1529,VALID,0,VALID,26.8583,VALID,88,VALID,0.401563,
2010-09-22, 02:26:04,VALID,1003.82,VALID,0,VALID,86.1377,VALID,0,VALID,26.8388,VALID,58,VALID,1.01602,
2010-09-22, 02:27:04,VALID,1003.86,VALID,0,VALID,86.1758,VALID,0,VALID,26.8603,VALID,47,VALID,1.40039,
2010-09-22, 02:28:04,VALID,1003.85,VALID,0,VALID,85.9775,VALID,0,VALID,26.8583,VALID,45,VALID,0.893359,
2010-09-22, 02:29:04,VALID,1003.88,VALID,0,VALID,86.0004,VALID,0,VALID,26.8583,VALID,25,VALID,1.01719,
2010-09-22, 02:30:04,VALID,1003.92,VALID,0,VALID,86.069,VALID,0,VALID,26.8368,VALID,88,VALID,0.397656,
2010-09-22, 02:31:04,VALID,1003.97,VALID,0,VALID,86.1529,VALID,0,VALID,26.8173,VALID,40,VALID,0.474219,
2010-09-22, 02:32:04,VALID,1003.98,VALID,0,VALID,86.1987,VALID,0,VALID,26.7978,VALID,29,VALID,0.555859,
2010-09-22, 02:33:04,VALID,1003.97,VALID,0,VALID,86.3055,VALID,0,VALID,26.7978,VALID,51,VALID,0.434375,
2010-09-22, 02:34:04,VALID,1003.94,VALID,0,VALID,86.2826,VALID,0.100563,VALID,26.7783,VALID,101,VALID,0.960156,
2010-09-22, 02:35:04,VALID,1003.95,VALID,0,VALID,86.2216,VALID,0.100563,VALID,26.7783,VALID,66,VALID,0.653516,
2010-09-22, 02:36:04,VALID,1003.94,VALID,0,VALID,86.3894,VALID,0.100563,VALID,26.7783,VALID,86,VALID,0.510156,
2010-09-22, 02:37:04,VALID,1003.94,VALID,0,VALID,86.3589,VALID,0.100563,VALID,26.7783,VALID,21,VALID,0.781641,
2010-09-22, 02:38:04,VALID,1003.95,VALID,0,VALID,86.3666,VALID,0,VALID,26.7783,VALID,28,VALID,0.369141,
2010-09-22, 02:39:04,VALID,1003.97,VALID,0,VALID,86.4123,VALID,0.100563,VALID,26.7783,VALID,60,VALID,0.900391,
2010-09-22, 02:40:04,VALID,1003.98,VALID,0,VALID,86.3589,VALID,0,VALID,26.7589,VALID,70,VALID,0.644141,
2010-09-22, 02:41:04,VALID,1004.01,VALID,0,VALID,86.3208,VALID,0,VALID,26.7804,VALID,80,VALID,0.241016,
2010-09-22, 02:42:04,VALID,1004.02,VALID,0,VALID,86.4352,VALID,0,VALID,26.7589,VALID,115,VALID,0.661719,
2010-09-22, 02:43:04,VALID,1004.01,VALID,0,VALID,86.5191,VALID,0.100563,VALID,26.7394,VALID,69,VALID,0.853906,
2010-09-22, 02:44:04,VALID,1004.03,VALID,0,VALID,86.5191,VALID,0,VALID,26.7589,VALID,20,VALID,1.27148,
2010-09-22, 02:45:04,VALID,1004.02,VALID,0,VALID,86.4886,VALID,0,VALID,26.7589,VALID,26,VALID,0.447656,
2010-09-22, 02:46:04,VALID,1004.04,VALID,0,VALID,86.4581,VALID,0,VALID,26.7609,VALID,21,VALID,1.42695,
2010-09-22, 02:47:04,VALID,1004.02,VALID,0,VALID,86.5115,VALID,0,VALID,26.7609,VALID,46,VALID,0.6375,
2010-09-22, 02:48:04,VALID,1004.07,VALID,0,VALID,86.542,VALID,0,VALID,26.7414,VALID,88,VALID,1.10039,
2010-09-22, 02:49:04,VALID,1004.1,VALID,0,VALID,86.6488,VALID,0,VALID,26.7219,VALID,102,VALID,0.833203,
2010-09-22, 02:50:04,VALID,1004.09,VALID,0,VALID,86.7861,VALID,0,VALID,26.7024,VALID,67,VALID,0.385547,
2010-09-22, 02:51:04,VALID,1004.09,VALID,0,VALID,86.7709,VALID,0,VALID,26.683,VALID,19,VALID,1.17539,
2010-09-22, 02:52:04,VALID,1004.02,VALID,0,VALID,86.9082,VALID,0,VALID,26.683,VALID,41,VALID,0.485156,
2010-09-22, 02:53:04,VALID,1004.02,VALID,0,VALID,86.9311,VALID,0,VALID,26.644,VALID,36,VALID,0.780469,
2010-09-22, 02:54:04,VALID,1004.01,VALID,0,VALID,87.0608,VALID,0,VALID,26.6245,VALID,29,VALID,0.366797,
2010-09-22, 02:55:04,VALID,1004.03,VALID,0,VALID,86.8929,VALID,0,VALID,26.6245,VALID,44,VALID,1.61875,
2010-09-22, 02:56:04,VALID,1004.04,VALID,0,VALID,86.8472,VALID,0,VALID,26.644,VALID,45,VALID,0.745703,
2010-09-22, 02:57:04,VALID,1004.07,VALID,0,VALID,86.8319,VALID,0,VALID,26.603,VALID,24,VALID,0.603906,
2010-09-22, 02:58:04,VALID,1004.06,VALID,0,VALID,86.9769,VALID,0,VALID,26.603,VALID,34,VALID,0.782031,
2010-09-22, 02:59:04,VALID,1004,VALID,0,VALID,86.9387,VALID,0,VALID,26.5855,VALID,53,VALID,0.726563,
2010-09-22, 03:00:04,VALID,1004.05,VALID,0,VALID,86.8014,VALID,0,VALID,26.6245,VALID,32,VALID,0.767578,
2010-09-22, 03:01:04,VALID,1004.02,VALID,0,VALID,86.7785,VALID,0,VALID,26.603,VALID,28,VALID,0.91875,
2010-09-22, 03:02:04,VALID,1004.04,VALID,0,VALID,86.7251,VALID,0,VALID,26.605,VALID,64,VALID,0.802344,
2010-09-22, 03:03:04,VALID,1004.01,VALID,0,VALID,86.8472,VALID,0,VALID,26.605,VALID,39,VALID,1.00312,
2010-09-22, 03:04:04,VALID,1003.99,VALID,0,VALID,86.9845,VALID,0,VALID,26.5641,VALID,13,VALID,1.0625,
2010-09-22, 03:05:04,VALID,1004.03,VALID,0,VALID,87.076,VALID,0,VALID,26.5251,VALID,45,VALID,0.93125,
2010-09-22, 03:06:04,VALID,1004.04,VALID,0,VALID,87.1752,VALID,0,VALID,26.5271,VALID,22,VALID,0.874609,
2010-09-22, 03:07:04,VALID,1004.06,VALID,0,VALID,87.2591,VALID,0,VALID,26.5271,VALID,24,VALID,0.776953,
2010-09-22, 03:08:04,VALID,1004.05,VALID,0,VALID,87.1676,VALID,0,VALID,26.5271,VALID,74,VALID,0.945703,
2010-09-22, 03:09:04,VALID,1004.08,VALID,0,VALID,87.0303,VALID,0,VALID,26.5466,VALID,44,VALID,0.823438,
2010-09-22, 03:10:04,VALID,1004.07,VALID,0,VALID,86.8777,VALID,0,VALID,26.5446,VALID,60,VALID,0.905078,
2010-09-22, 03:11:04,VALID,1004.05,VALID,0,VALID,86.7022,VALID,0,VALID,26.605,VALID,25,VALID,1.89648,
2010-09-22, 03:12:04,VALID,1004.08,VALID,0,VALID,86.5039,VALID,0,VALID,26.6635,VALID,46,VALID,0.639453,
2010-09-22, 03:13:04,VALID,1004.11,VALID,0,VALID,86.3666,VALID,0,VALID,26.6635,VALID,56,VALID,0.767578,
2010-09-22, 03:14:04,VALID,1004.11,VALID,0,VALID,86.2445,VALID,0,VALID,26.6614,VALID,37,VALID,1.275,
2010-09-22, 03:15:04,VALID,1004.15,VALID,0,VALID,85.9775,VALID,0,VALID,26.7394,VALID,55,VALID,0.820703,
2010-09-22, 03:16:04,VALID,1004.18,VALID,0,VALID,85.9317,VALID,0,VALID,26.7804,VALID,42,VALID,0.30625,
2010-09-22, 03:17:04,VALID,1004.23,VALID,0,VALID,85.7944,VALID,0,VALID,26.7609,VALID,26,VALID,0.557813,
2010-09-22, 03:18:04,VALID,1004.25,VALID,0,VALID,85.8783,VALID,0,VALID,26.7609,VALID,19,VALID,0.469531,
2010-09-22, 03:19:04,VALID,1004.29,VALID,0,VALID,86.0538,VALID,0,VALID,26.7219,VALID,28,VALID,0.487109,
2010-09-22, 03:20:04,VALID,1004.31,VALID,0,VALID,86.0461,VALID,0,VALID,26.7004,VALID,26,VALID,1.12812,
2010-09-22, 03:21:04,VALID,1004.35,VALID,0,VALID,86.0309,VALID,0,VALID,26.7219,VALID,29,VALID,0.305078,
2010-09-22, 03:22:04,VALID,1004.39,VALID,0,VALID,86.2292,VALID,0,VALID,26.683,VALID,42,VALID,0.598047,
2010-09-22, 03:23:04,VALID,1004.4,VALID,0,VALID,86.0385,VALID,0,VALID,26.7219,VALID,86,VALID,1.5125,
2010-09-22, 03:24:04,VALID,1004.42,VALID,0,VALID,86.0233,VALID,0,VALID,26.7609,VALID,27,VALID,0.750391,
2010-09-22, 03:25:04,VALID,1004.43,VALID,0,VALID,86.1072,VALID,0,VALID,26.7219,VALID,19,VALID,0.785937,
2010-09-22, 03:26:04,VALID,1004.45,VALID,0,VALID,86.069,VALID,0,VALID,26.7414,VALID,35,VALID,1.04766,
2010-09-22, 03:27:04,VALID,1004.47,VALID,0,VALID,86.0385,VALID,0,VALID,26.7219,VALID,5,VALID,0.565625,
2010-09-22, 03:28:04,VALID,1004.49,VALID,0,VALID,86.008,VALID,0,VALID,26.7199,VALID,81,VALID,1.37148,
2010-09-22, 03:29:04,VALID,1004.54,VALID,0,VALID,85.8859,VALID,0,VALID,26.7609,VALID,3,VALID,1.97812,
2010-09-22, 03:30:04,VALID,1004.55,VALID,0,VALID,85.7181,VALID,0,VALID,26.7804,VALID,75,VALID,1.5125,
2010-09-22, 03:31:04,VALID,1004.57,VALID,0,VALID,85.6876,VALID,0,VALID,26.7783,VALID,97,VALID,0.701563,
2010-09-22, 03:32:04,VALID,1004.58,VALID,0,VALID,85.7334,VALID,0,VALID,26.7783,VALID,28,VALID,1.43398,
2010-09-22, 03:33:04,VALID,1004.57,VALID,0,VALID,85.8631,VALID,0,VALID,26.8214,VALID,25,VALID,0.733594,
2010-09-22, 03:34:04,VALID,1004.58,VALID,0,VALID,85.7868,VALID,0,VALID,26.7804,VALID,33,VALID,1.12852,
2010-09-22, 03:35:04,VALID,1004.59,VALID,0,VALID,85.7944,VALID,0,VALID,26.7998,VALID,28,VALID,0.800391,
2010-09-22, 03:36:04,VALID,1004.63,VALID,0,VALID,85.7715,VALID,0,VALID,26.7783,VALID,71,VALID,1.29883,
2010-09-22, 03:37:04,VALID,1004.67,VALID,0,VALID,85.8249,VALID,0,VALID,26.8214,VALID,10,VALID,0.383203,
2010-09-22, 03:38:04,VALID,1004.65,VALID,0,VALID,85.8783,VALID,0,VALID,26.7609,VALID,68,VALID,0.852344,
2010-09-22, 03:39:04,VALID,1004.67,VALID,0,VALID,85.9165,VALID,0,VALID,26.7804,VALID,34,VALID,1.58086,
2010-09-22, 03:40:04,VALID,1004.68,VALID,0,VALID,85.6266,VALID,0,VALID,26.8388,VALID,53,VALID,0.687109,
2010-09-22, 03:41:04,VALID,1004.61,VALID,0,VALID,85.5426,VALID,0,VALID,26.8388,VALID,75,VALID,1.26367,
2010-09-22, 03:42:04,VALID,1004.62,VALID,0,VALID,85.4816,VALID,0,VALID,26.8778,VALID,74,VALID,0.915234,
2010-09-22, 03:43:04,VALID,1004.61,VALID,0,VALID,85.474,VALID,0,VALID,26.8778,VALID,81,VALID,1.14023,
2010-09-22, 03:44:04,VALID,1004.61,VALID,0,VALID,85.3595,VALID,0,VALID,26.9167,VALID,83,VALID,2.40117,